Kbely Air Base

Jump to: basic info | weather | frequencies | runways | comments

Related pages: nearby airports | nearby navaids | notams | map

Basic information (top)

Codes: LKKB
Location: lon 50.121399, lat 14.543600, elev 939 ft / 286 m msl
Status: medium_airport

Weather (top)

Current conditions (rec'd 2014/12/19 23:00Z):

LKKB 192300Z 25007KT 9999 SCT032 BKN041 OVC070 07/05 Q1014

Airport forecast (rec'd 2014/12/15 18:00Z):

TAF COR LKKB 151700Z 1518/1618 24008KT 9999 BKN025 
      BECMG 1520/1522 VRB02KT 
      BECMG 1610/1612 27006KT SCT035 BKN100

Frequencies (top)

Verify before use: may be inaccurate or out of date.

APP: 124.675 MHz (APP)
GCA: 123.3 MHz (PRECISION)
TWR: 120.875 MHz (TWR)

Runways (top)

06/24: 6,562 x 148 ft (2,000 x 45 m) — paved — lighted

Latest comments (top)

No comments yet for Kbely Air Base

More... (top)

See also NOTAMs and nearby airports and navaids, or visit the Kbely Air Base page at the main OurAirports website..